Wind_Speed
13 12 11 9 7 5 4 5 10 15 15 12 12 12 12 11 9 10 10 10 10 10 10 10 10 11 11 12 12 12 11 11 11 10 10 9 9 9 8 7 7 6 5 4 4 4 3 3 3
14 13 12 11 9 4 3 8 16 18 14 12 12 13 13 12 12 11 11 11 10 11 10 11 11 12 12 13 13 13 13 13 12 12 11 11 10 10 9 9 8 7 7 6 5 5 4 4 4
15 14 13 11 9 6 6 14 20 18 14 14 13 13 12 13 12 12 12 12 12 12 12 12 12 13 14 14 14 14 14 14 14 13 13 12 12 12 11 11 10 9 8 7 7 6 6 5 5
17 15 14 12 9 8 11 19 21 18 14 14 13 13 13 13 13 13 13 13 13 13 13 13 14 14 14 15 15 15 15 15 15 15 15 14 14 14 13 12 11 11 10 9 8 8 7 7 7
17 16 15 13 11 11 15 20 19 17 14 14 14 14 14 13 14 14 14 14 13 14 15 15 15 15 15 16 15 16 17 17 17 17 17 16 16 16 15 14 13 12 12 11 11 10 10 9 9
17 16 15 12 11 16 20 20 17 15 14 14 16 15 15 14 14 14 14 15 14 14 15 15 15 15 16 17 17 17 18 18 19 19 19 18 17 17 17 16 15 14 14 13 13 12 12 11 11
18 17 14 10 12 18 20 19 16 15 16 17 17 15 15 14 15 15 15 15 15 15 15 15 15 16 17 18 18 19 20 19 19 20 20 20 19 19 19 18 17 16 15 15 15 15 14 14 13
18 18 15 13 15 18 20 18 18 15 17 16 16 15 14 14 15 16 16 16 16 16 16 16 16 16 17 18 18 19 20 20 20 20 20 20 20 20 20 19 19 18 18 17 17 17 16 15 15
18 17 14 13 16 19 20 18 18 17 19 19 18 16 14 15 16 16 17 17 17 17 17 17 17 17 18 18 18 18 19 20 21 21 20 20 20 20 20 19 19 20 19 19 18 18 18 17 16
17 15 12 15 18 21 20 18 18 17 19 19 17 16 15 16 15 17 17 18 18 18 19 19 19 18 19 19 19 19 20 20 21 21 21 21 21 21 20 20 20 21 21 20 19 19 18 18 18
18 17 16 21 23 22 20 18 18 17 17 18 18 16 14 16 17 18 18 19 20 19 19 19 20 20 19 20 20 20 21 22 22 22 21 21 22 22 21 21 22 22 21 21 20 19 19 19 19
18 19 20 22 23 22 19 18 18 17 17 17 17 18 18 17 18 19 20 20 21 20 20 21 20 20 20 20 21 21 21 22 23 22 21 23 23 22 22 22 22 22 22 21 20 20 20 19 18
18 20 20 21 21 19 19 18 17 18 18 17 19 19 17 18 19 19 20 21 21 21 21 21 21 21 21 21 21 22 22 22 22 23 24 24 23 23 22 22 22 21 20 20 21 21 21 21 20
18 19 19 18 17 16 17 17 18 18 17 18 19 19 19 19 20 21 21 21 21 21 22 22 21 21 22 21 22 23 24 23 23 24 25 24 24 22 22 22 23 22 22 21 22 23 23 22 21
18 18 17 17 16 15 16 17 17 17 17 18 19 19 19 20 21 21 22 22 22 22 22 23 23 22 22 22 23 24 25 24 25 25 25 24 24 24 24 24 24 23 23 23 24 24 24 23 22
16 15 15 15 15 15 15 16 17 19 18 19 19 20 20 21 21 22 22 22 22 23 24 24 24 23 24 24 24 25 26 25 25 26 26 25 25 25 25 24 24 25 25 25 26 25 25 24 23
13 13 13 14 14 14 14 17 20 20 20 20 21 20 21 21 21 22 23 23 23 24 24 24 24 25 25 26 25 26 26 26 26 26 26 25 25 25 25 24 24 24 25 25 25 25 25 25 24
11 11 13 15 15 14 15 18 20 20 21 21 21 20 21 21 21 22 23 23 24 24 24 24 24 25 26 26 27 27 27 26 26 26 27 26 26 26 26 24 24 25 26 26 26 25 25 26 26
11 13 14 15 17 16 18 20 20 20 22 22 21 21 21 20 21 23 23 24 24 25 24 24 25 26 26 27 27 27 27 27 26 27 27 27 26 25 26 25 25 25 26 26 26 26 25 25 26
16 16 16 17 18 17 18 20 20 21 22 22 21 21 23 22 21 22 23 23 24 24 25 25 25 25 26 26 27 27 27 27 27 26 27 27 26 26 27 25 25 25 26 26 26 26 26 26 26
18 16 15 17 19 18 19 21 21 21 23 22 23 23 23 22 21 22 23 22 23 24 25 25 25 26 26 27 27 27 26 26 26 27 27 28 28 27 27 26 26 26 26 27 27 27 27 27 28
16 15 15 18 20 18 19 21 22 21 22 22 22 23 23 22 22 23 23 23 23 23 23 25 26 27 27 27 27 26 25 26 26 27 27 27 27 27 27 27 27 27 28 28 28 28 28 27 27
15 16 17 19 19 18 17 17 20 23 23 21 21 21 22 22 23 23 24 23 23 24 25 26 27 28 28 28 26 25 25 25 25 25 26 26 26 27 27 28 29 29 29 29 29 28 28 28 27
15 16 16 17 17 18 17 20 22 24 23 21 21 21 22 22 23 24 23 24 25 25 26 27 27 27 27 26 26 25 25 25 26 26 26 26 26 27 28 28 28 28 28 28 28 28 28 28 28
16 16 15 16 17 19 18 21 24 23 23 22 21 21 21 23 24 24 24 25 26 26 26 26 26 26 25 25 26 26 26 26 25 26 26 26 26 26 27 27 26 27 27 28 28 28 27 27 27
16 16 16 16 16 18 18 21 25 25 24 23 23 23 22 23 24 24 25 27 27 27 27 27 27 26 26 26 27 27 27 26 26 26 26 26 26 26 26 27 27 27 27 27 27 27 27 27 27
15 16 15 16 16 17 18 19 21 21 21 23 24 24 24 25 25 25 26 26 27 27 27 27 26 26 27 28 27 27 27 26 26 26 27 26 26 26 26 26 26 26 26 26 26 26 26 26 25
15 15 16 17 17 18 17 19 21 22 21 22 23 24 25 25 25 25 25 25 26 26 26 26 26 26 27 28 28 27 27 27 27 26 25 25 25 24 23 24 24 25 25 25 25 25 25 25 25
16 16 16 17 17 17 19 21 21 22 22 21 22 23 23 23 24 24 25 26 26 26 26 27 27 27 27 27 26 27 27 26 26 25 24 24 24 23 23 22 22 23 24 24 24 24 24 24 24
16 15 16 18 18 18 20 23 21 22 21 21 22 22 23 23 24 25 26 25 25 25 26 26 26 26 26 26 26 26 26 25 24 24 23 23 23 23 22 21 21 21 21 22 22 22 22 23 23
Wind_Direction
238 239 238 233 224 206 173 183 237 246 245 245 253 257 260 266 269 267 281 287 289 286 286 280 275 271 267 262 259 257 254 255 255 256 256 255 255 255 256 258 257 256 259 263 272 281 292 312 328
237 237 235 231 219 180 181 214 239 253 253 249 251 257 262 263 264 269 278 284 286 286 285 279 276 273 269 264 263 259 254 254 255 256 258 258 258 259 259 260 259 259 262 265 270 276 281 292 301
237 235 233 227 211 172 197 230 245 259 256 252 252 258 260 262 266 273 279 284 287 286 285 280 277 275 272 268 264 261 258 257 256 256 258 258 258 259 260 260 259 259 260 262 266 271 276 282 287
236 233 228 222 200 187 208 232 247 256 256 255 258 257 257 264 272 278 283 285 288 286 285 280 277 276 273 271 267 264 261 258 258 258 260 259 258 259 260 260 259 259 261 262 264 269 274 277 280
234 231 226 217 202 206 227 237 245 253 255 261 263 257 257 266 275 280 284 286 289 288 286 282 280 277 272 269 269 266 262 259 259 259 260 260 258 258 259 259 259 261 263 263 264 267 271 274 277
230 227 223 212 204 218 230 242 246 251 254 254 261 260 263 272 277 281 285 288 291 293 290 285 281 279 273 270 270 267 262 261 261 260 259 260 260 260 259 259 260 262 265 265 266 268 269 270 273
229 223 214 205 217 233 238 241 237 242 250 255 253 252 262 273 279 283 287 290 293 293 291 288 283 281 277 274 273 269 262 260 262 262 261 260 260 260 261 261 261 262 264 265 266 267 268 268 269
226 223 211 200 219 235 245 243 239 234 238 245 253 269 268 278 283 287 290 293 296 294 290 288 286 283 279 276 272 271 265 261 261 261 262 262 260 259 259 260 261 262 263 263 265 267 268 268 268
222 223 213 203 218 232 241 243 243 236 241 247 257 265 271 277 283 290 293 295 296 295 293 291 287 283 279 278 274 272 268 263 262 262 261 262 259 258 259 259 260 262 263 263 264 266 267 267 268
214 209 204 208 216 230 239 240 243 241 244 254 260 265 269 279 285 289 293 295 295 296 294 291 289 286 281 278 275 272 271 268 268 266 266 263 258 257 260 262 262 262 263 262 263 264 266 266 266
206 200 202 213 216 225 233 237 239 245 249 255 258 263 271 278 283 286 291 294 295 296 294 289 287 283 279 277 276 273 272 271 269 264 267 266 261 259 261 264 264 263 263 263 264 264 265 266 266
206 208 212 218 224 227 231 235 243 246 249 254 260 264 273 276 281 286 288 291 294 295 293 290 285 282 283 281 278 274 271 272 270 266 268 270 267 263 263 265 264 265 266 264 263 265 265 265 266
212 216 221 227 230 229 230 237 241 245 252 259 265 269 274 278 281 284 287 289 289 291 292 292 287 285 285 284 280 279 277 274 272 271 272 272 269 266 263 266 268 269 268 267 268 266 266 267 268
213 220 223 228 231 229 233 237 241 247 254 262 269 273 276 278 281 284 286 288 289 289 292 290 289 289 288 285 282 280 278 276 274 272 272 271 269 265 264 265 269 270 271 269 268 270 268 267 267
213 221 225 227 232 235 237 240 247 254 257 262 267 271 275 279 281 283 284 286 289 289 290 290 290 289 288 285 282 281 280 277 275 273 272 272 270 265 264 266 269 272 273 271 270 271 271 272 272
214 220 228 233 236 240 245 250 253 257 260 264 268 270 273 278 281 281 283 285 288 289 289 290 289 288 285 282 282 282 281 277 275 274 273 273 272 270 267 266 268 271 273 273 272 272 273 276 275
212 218 226 238 244 245 247 249 256 262 264 268 270 272 276 279 280 281 283 285 287 287 287 288 287 286 285 284 284 283 279 276 276 276 275 275 273 270 267 266 269 271 273 273 272 272 272 273 274
216 220 224 237 251 252 249 249 253 262 268 272 274 274 276 277 280 282 284 286 286 286 287 286 286 286 285 284 284 284 279 277 275 276 277 276 276 272 268 268 269 270 273 273 273 274 274 273 273
216 220 220 235 249 248 247 253 257 263 270 274 276 278 279 278 282 283 285 286 286 286 287 289 288 287 286 284 284 282 279 277 274 275 275 276 275 274 273 270 269 270 273 273 275 275 274 273 274
208 216 218 229 245 249 252 256 262 265 269 272 275 277 278 283 281 283 284 285 286 288 288 288 288 288 286 285 284 283 279 276 275 274 272 273 273 274 274 273 272 272 274 275 275 273 271 272 272
204 209 215 231 247 250 253 260 264 265 269 273 274 277 281 280 282 285 283 285 287 289 290 288 287 287 286 285 285 283 280 279 277 276 275 272 273 274 274 272 271 273 274 274 273 272 271 271 272
208 212 218 235 247 253 256 260 267 271 273 272 272 274 276 280 281 283 285 286 290 291 292 291 289 288 287 288 288 283 282 281 280 279 278 276 275 275 273 271 271 272 272 272 272 271 272 272 272
211 219 226 234 248 253 258 263 267 270 275 273 271 272 277 282 283 285 286 287 289 292 293 292 291 289 288 288 288 286 285 285 283 281 281 280 278 276 274 272 271 272 271 271 271 271 271 272 273
214 222 231 234 244 250 254 259 264 268 272 273 275 276 280 285 288 289 287 287 290 292 292 292 291 290 289 288 289 289 287 285 284 283 282 282 281 278 276 275 274 272 272 271 272 271 272 272 273
217 221 227 236 243 251 256 257 261 269 274 277 281 282 281 285 288 289 289 289 290 292 292 292 293 293 293 292 290 289 289 287 285 284 283 282 281 280 278 277 276 275 274 273 272 272 272 272 272
222 220 231 244 251 256 254 254 258 264 274 283 284 282 283 287 290 291 290 289 290 292 292 293 294 294 294 293 292 290 289 290 287 285 285 284 283 282 280 278 276 275 274 274 272 272 272 271 270
224 224 235 252 261 263 258 260 264 265 272 279 280 282 283 285 288 290 291 289 291 293 293 294 294 295 293 293 293 291 291 290 291 289 287 287 286 283 281 279 277 275 274 274 273 272 271 270 271
226 229 233 242 257 264 266 265 269 275 278 279 279 280 281 282 286 290 292 293 294 295 294 295 295 295 294 292 291 292 291 290 290 290 288 286 285 284 283 281 279 277 275 274 273 273 273 273 272
228 231 239 247 253 265 275 277 280 274 278 281 283 284 284 284 286 289 292 293 294 295 296 296 294 293 294 293 292 291 290 289 288 286 285 285 284 284 284 284 281 278 275 274 274 274 274 275 274
235 233 241 248 253 260 274 281 281 279 279 283 285 286 287 286 288 289 290 292 293 295 297 298 296 294 295 295 294 293 291 289 288 287 286 285 285 285 286 285 282 279 277 275 273 272 274 275 274
Height
5898 5899 5901 5903 5906 5908 5909 5912 5912 5911 5911 5911 5910 5909 5909 5909 5910 5911 5909 5908 5909 5909 5908 5908 5908 5908 5908 5908 5908 5908 5908 5908 5908 5908 5908 5908 5908 5908 5907 5907 5907 5907 5906 5906 5906 5905 5905 5904 5904
5896 5898 5900 5902 5904 5906 5909 5911 5910 5908 5909 5909 5908 5908 5908 5908 5908 5907 5907 5907 5908 5908 5907 5907 5907 5906 5906 5906 5906 5906 5906 5906 5906 5907 5907 5907 5907 5907 5906 5906 5906 5906 5906 5905 5905 5905 5904 5904 5904
5893 5895 5898 5900 5902 5905 5909 5909 5907 5906 5907 5906 5906 5907 5906 5906 5906 5905 5906 5906 5907 5906 5906 5906 5905 5905 5904 5904 5904 5904 5904 5905 5905 5905 5905 5905 5905 5905 5905 5905 5904 5904 5904 5904 5904 5904 5904 5903 5903
5891 5894 5896 5900 5901 5904 5905 5904 5904 5904 5904 5903 5904 5905 5904 5904 5904 5904 5904 5905 5905 5905 5904 5904 5903 5903 5902 5902 5902 5902 5902 5902 5902 5902 5902 5903 5903 5903 5903 5903 5903 5903 5902 5902 5902 5902 5902 5902 5902
5888 5891 5894 5897 5899 5902 5903 5901 5902 5902 5902 5901 5901 5902 5901 5902 5903 5903 5902 5903 5903 5903 5902 5901 5901 5901 5900 5900 5900 5900 5900 5900 5900 5900 5900 5900 5900 5900 5900 5901 5901 5901 5901 5901 5901 5901 5901 5900 5900
5886 5889 5892 5894 5898 5899 5900 5899 5901 5900 5900 5899 5899 5898 5899 5900 5901 5901 5900 5900 5901 5900 5900 5899 5899 5898 5898 5897 5897 5897 5897 5897 5897 5897 5897 5897 5897 5898 5898 5898 5898 5898 5899 5899 5899 5899 5899 5898 5898
5884 5886 5888 5893 5897 5897 5897 5897 5898 5899 5897 5897 5895 5895 5896 5897 5898 5898 5898 5898 5898 5898 5897 5896 5896 5896 5895 5894 5894 5893 5893 5893 5893 5893 5894 5894 5894 5895 5895 5895 5895 5896 5896 5896 5896 5896 5896 5896 5896
5880 5883 5885 5890 5895 5895 5894 5894 5895 5897 5894 5894 5892 5892 5894 5895 5896 5896 5895 5895 5895 5895 5894 5893 5893 5892 5892 5891 5890 5890 5890 5890 5890 5890 5890 5890 5891 5891 5891 5892 5892 5892 5893 5893 5893 5893 5893 5893 5893
5877 5882 5884 5889 5892 5892 5890 5891 5892 5893 5893 5891 5890 5891 5892 5894 5894 5894 5893 5893 5892 5891 5891 5890 5890 5889 5888 5888 5887 5886 5886 5886 5886 5886 5886 5886 5887 5887 5887 5887 5888 5889 5889 5889 5889 5890 5890 5890 5890
5875 5878 5883 5887 5889 5888 5888 5888 5889 5890 5890 5889 5889 5889 5890 5891 5891 5891 5891 5890 5889 5888 5888 5887 5886 5885 5885 5884 5884 5883 5883 5883 5883 5882 5882 5882 5882 5883 5883 5883 5884 5884 5885 5885 5885 5886 5886 5886 5887
5872 5874 5878 5881 5882 5883 5884 5884 5885 5886 5887 5888 5888 5888 5887 5888 5889 5888 5888 5887 5886 5885 5884 5883 5883 5882 5881 5881 5880 5880 5880 5879 5879 5878 5878 5878 5878 5878 5879 5879 5880 5880 5881 5881 5882 5882 5882 5882 5882
5869 5871 5873 5876 5878 5878 5880 5881 5882 5883 5884 5884 5885 5885 5886 5886 5886 5885 5885 5884 5883 5882 5881 5880 5879 5878 5878 5877 5877 5876 5876 5875 5874 5873 5873 5874 5874 5873 5874 5875 5875 5876 5876 5876 5877 5878 5878 5877 5877
5866 5868 5870 5872 5874 5875 5877 5879 5879 5880 5881 5882 5882 5881 5881 5882 5882 5882 5882 5881 5880 5878 5877 5876 5875 5874 5874 5873 5871 5871 5871 5871 5870 5869 5869 5869 5870 5869 5870 5871 5871 5871 5871 5872 5873 5873 5873 5873 5874
5862 5865 5867 5869 5871 5872 5874 5876 5877 5878 5879 5879 5879 5880 5879 5879 5879 5879 5878 5877 5876 5875 5874 5873 5871 5870 5870 5869 5868 5867 5867 5866 5866 5866 5866 5866 5866 5865 5866 5866 5867 5867 5868 5868 5868 5868 5868 5869 5869
5859 5862 5865 5867 5868 5870 5872 5872 5873 5875 5876 5876 5877 5877 5876 5876 5875 5875 5874 5873 5873 5872 5870 5869 5868 5867 5866 5865 5864 5863 5862 5862 5861 5861 5861 5861 5861 5861 5861 5862 5862 5862 5863 5863 5863 5863 5863 5864 5864
5857 5860 5862 5864 5866 5868 5871 5869 5870 5871 5872 5873 5872 5873 5872 5872 5872 5871 5870 5870 5869 5868 5867 5865 5864 5863 5862 5861 5860 5859 5857 5856 5856 5855 5855 5855 5856 5856 5856 5856 5857 5857 5857 5858 5858 5858 5858 5859 5859
5855 5858 5861 5863 5864 5866 5867 5867 5868 5867 5868 5869 5868 5868 5868 5868 5868 5867 5866 5866 5865 5863 5862 5861 5859 5858 5857 5856 5855 5854 5852 5852 5851 5851 5850 5850 5850 5850 5850 5850 5851 5852 5852 5852 5852 5853 5853 5853 5854
5855 5858 5860 5862 5862 5864 5864 5863 5863 5863 5864 5864 5864 5863 5864 5864 5863 5863 5862 5861 5860 5859 5857 5856 5854 5853 5852 5851 5850 5849 5848 5847 5846 5845 5845 5845 5845 5845 5845 5845 5846 5846 5847 5847 5847 5847 5847 5848 5848
5855 5857 5860 5861 5861 5862 5861 5861 5861 5861 5861 5860 5860 5859 5859 5859 5859 5858 5857 5857 5855 5854 5852 5851 5849 5848 5847 5845 5844 5843 5842 5841 5840 5840 5839 5839 5839 5839 5839 5839 5840 5840 5841 5841 5841 5841 5842 5842 5842
5852 5856 5858 5860 5859 5860 5859 5858 5859 5859 5858 5856 5855 5855 5854 5854 5854 5853 5852 5851 5850 5849 5847 5846 5844 5843 5841 5839 5838 5837 5836 5835 5834 5834 5834 5833 5833 5833 5833 5833 5834 5834 5834 5835 5835 5835 5836 5836 5836
5849 5853 5856 5857 5856 5857 5856 5855 5855 5855 5853 5853 5852 5852 5850 5850 5849 5849 5848 5847 5846 5844 5842 5841 5839 5838 5836 5834 5832 5831 5830 5829 5829 5828 5828 5827 5827 5827 5827 5827 5827 5828 5828 5828 5829 5829 5829 5829 5830
5847 5850 5853 5854 5853 5853 5854 5852 5851 5850 5850 5848 5848 5847 5846 5846 5845 5844 5843 5842 5841 5839 5837 5836 5834 5832 5831 5829 5827 5825 5824 5823 5822 5822 5821 5820 5820 5820 5820 5820 5821 5821 5821 5822 5822 5822 5822 5823 5823
5844 5847 5849 5850 5850 5851 5850 5849 5849 5846 5845 5844 5844 5843 5842 5842 5840 5840 5838 5837 5836 5835 5833 5831 5829 5827 5825 5823 5821 5819 5818 5817 5816 5815 5815 5814 5813 5813 5813 5813 5813 5814 5814 5814 5814 5814 5815 5815 5815
5841 5844 5845 5846 5846 5847 5847 5846 5845 5842 5840 5840 5840 5838 5837 5838 5836 5834 5833 5832 5831 5830 5828 5825 5823 5821 5819 5817 5815 5813 5812 5811 5810 5809 5808 5807 5806 5806 5806 5806 5806 5806 5806 5806 5807 5807 5807 5807 5808
5838 5840 5842 5842 5843 5843 5844 5842 5840 5837 5836 5836 5835 5833 5833 5833 5832 5831 5829 5828 5826 5824 5822 5820 5817 5815 5813 5811 5809 5808 5806 5804 5803 5802 5801 5800 5800 5799 5799 5799 5799 5799 5799 5799 5799 5799 5800 5800 5800
5834 5837 5839 5840 5840 5839 5839 5837 5835 5833 5833 5832 5831 5830 5829 5829 5827 5826 5824 5822 5820 5818 5816 5814 5812 5810 5807 5805 5803 5801 5799 5798 5796 5795 5794 5793 5792 5792 5791 5791 5791 5791 5791 5791 5791 5792 5792 5792 5793
5832 5833 5835 5836 5835 5835 5835 5832 5829 5828 5828 5828 5828 5827 5826 5824 5823 5821 5819 5817 5815 5812 5810 5808 5806 5803 5801 5799 5796 5794 5793 5791 5789 5788 5787 5786 5785 5785 5784 5784 5784 5784 5784 5784 5784 5784 5784 5785 5785
5829 5831 5831 5832 5831 5831 5831 5829 5825 5824 5824 5824 5824 5822 5821 5819 5818 5816 5813 5811 5809 5807 5805 5802 5800 5797 5794 5792 5790 5788 5786 5784 5783 5782 5780 5779 5778 5777 5777 5776 5776 5776 5776 5776 5777 5777 5777 5777 5778
5826 5827 5827 5828 5828 5829 5827 5826 5821 5820 5820 5820 5819 5817 5815 5813 5812 5810 5808 5806 5804 5802 5799 5796 5794 5791 5788 5785 5783 5781 5779 5778 5776 5775 5774 5773 5772 5771 5770 5769 5769 5769 5769 5769 5770 5770 5770 5770 5771
5822 5823 5825 5825 5825 5825 5824 5824 5818 5817 5816 5815 5814 5812 5810 5808 5806 5804 5802 5800 5798 5796 5793 5790 5788 5785 5782 5779 5777 5775 5773 5771 5770 5769 5768 5767 5766 5765 5764 5763 5762 5762 5762 5763 5763 5763 5764 5764 5764